Time,TemperatureF,DewpointF,PressureIn,WindDirection,WindDirectionDegrees,WindSpeedMPH,WindSpeedGustMPH,Humidity,HourlyPrecipIn,Conditions,Clouds,dailyrainin,SoftwareType,DateUTC
2013-02-04 00:01:00,38.0,31.0,-100.00,NNE,27,0.0,0.0,77,0.00,,,0.00,,2013-02-04 08:01:00,
2013-02-04 00:32:00,36.0,29.0,-100.00,NE,37,0.0,0.0,77,0.00,,,0.00,,2013-02-04 08:32:00,
2013-02-04 00:42:00,36.0,29.0,-100.00,NE,37,0.0,0.0,77,0.00,,,0.00,,2013-02-04 08:42:00,
2013-02-04 00:52:00,36.0,29.0,-100.00,NE,37,0.0,0.0,77,0.00,,,0.00,,2013-02-04 08:52:00,
2013-02-04 01:01:00,36.0,29.0,-100.00,NE,37,0.0,0.0,77,0.00,,,0.00,,2013-02-04 09:01:00,
2013-02-04 01:32:00,37.0,31.0,-100.00,NE,37,0.0,0.0,78,0.00,,,-99.99,,2013-02-04 09:32:00,
2013-02-04 01:42:00,37.0,31.0,-100.00,NE,37,0.0,0.0,78,0.00,,,-99.99,,2013-02-04 09:42:00,
2013-02-04 01:52:00,37.0,31.0,-100.00,NE,37,0.0,0.0,78,0.00,,,-99.99,,2013-02-04 09:52:00,
2013-02-04 02:01:00,37.0,31.0,-100.00,NE,37,0.0,0.0,78,0.00,,,-99.99,,2013-02-04 10:01:00,
2013-02-04 02:32:00,35.0,28.0,-100.00,NNE,27,0.0,0.0,76,0.00,,,0.00,,2013-02-04 10:32:00,
2013-02-04 02:42:00,35.0,28.0,-100.00,NNE,27,0.0,0.0,76,0.00,,,0.00,,2013-02-04 10:42:00,
2013-02-04 02:52:00,35.0,28.0,-100.00,NNE,27,0.0,0.0,76,0.00,,,0.00,,2013-02-04 10:52:00,
2013-02-04 03:01:00,35.0,28.0,-100.00,NNE,27,0.0,0.0,76,0.00,,,0.00,,2013-02-04 11:01:00,
2013-02-04 03:33:00,38.0,28.0,-100.00,NNE,33,0.0,2.0,67,0.00,,,0.00,,2013-02-04 11:33:00,
2013-02-04 03:42:00,38.0,28.0,-100.00,NNE,33,0.0,2.0,67,0.00,,,0.00,,2013-02-04 11:42:00,
2013-02-04 03:52:00,38.0,28.0,-100.00,NNE,33,0.0,2.0,67,0.00,,,0.00,,2013-02-04 11:52:00,
2013-02-04 04:02:00,38.0,28.0,-100.00,NNE,33,0.0,2.0,67,0.00,,,0.00,,2013-02-04 12:02:00,
2013-02-04 04:22:00,41.0,25.0,-100.00,NE,46,1.0,5.0,53,0.00,,,-99.99,,2013-02-04 12:22:00,
2013-02-04 04:33:00,41.0,25.0,-100.00,NE,46,1.0,5.0,53,0.00,,,-99.99,,2013-02-04 12:33:00,
2013-02-04 04:42:00,41.0,25.0,-100.00,NE,46,1.0,5.0,53,0.00,,,-99.99,,2013-02-04 12:42:00,
2013-02-04 04:53:00,41.0,25.0,-100.00,NE,46,1.0,5.0,53,0.00,,,-99.99,,2013-02-04 12:53:00,
2013-02-04 05:02:00,41.0,25.0,-100.00,NE,46,1.0,5.0,53,0.00,,,-99.99,,2013-02-04 13:02:00,
2013-02-04 05:22:00,41.0,26.0,-100.00,NE,45,0.0,7.0,55,0.00,,,0.00,,2013-02-04 13:22:00,
2013-02-04 05:33:00,41.0,26.0,-100.00,NE,45,0.0,7.0,55,0.00,,,0.00,,2013-02-04 13:33:00,
2013-02-04 05:42:00,41.0,26.0,-100.00,NE,45,0.0,7.0,55,0.00,,,0.00,,2013-02-04 13:42:00,
2013-02-04 05:52:00,41.0,26.0,-100.00,NE,45,0.0,7.0,55,0.00,,,0.00,,2013-02-04 13:52:00,
2013-02-04 06:02:00,41.0,26.0,-100.00,NE,45,0.0,7.0,55,0.00,,,0.00,,2013-02-04 14:02:00,
2013-02-04 06:03:00,38.0,25.0,-100.00,NE,46,0.0,3.0,59,0.00,,,0.00,,2013-02-04 14:03:00,
2013-02-04 06:33:00,38.0,25.0,-100.00,NE,46,0.0,3.0,59,0.00,,,0.00,,2013-02-04 14:33:00,
2013-02-04 06:42:00,38.0,25.0,-100.00,NE,46,0.0,3.0,59,0.00,,,0.00,,2013-02-04 14:42:00,
2013-02-04 06:52:00,38.0,25.0,-100.00,NE,46,0.0,3.0,59,0.00,,,0.00,,2013-02-04 14:52:00,
2013-02-04 07:33:00,41.0,27.0,-100.00,NE,53,0.0,4.0,56,0.00,,,0.00,,2013-02-04 15:33:00,
2013-02-04 07:43:00,41.0,27.0,-100.00,NE,53,0.0,4.0,56,0.00,,,0.00,,2013-02-04 15:43:00,
2013-02-04 07:52:00,41.0,27.0,-100.00,NE,53,0.0,4.0,56,0.00,,,0.00,,2013-02-04 15:52:00,
2013-02-04 08:02:00,41.0,27.0,-100.00,NE,53,0.0,4.0,56,0.00,,,0.00,,2013-02-04 16:02:00,
2013-02-04 10:32:00,55.0,26.0,-100.00,NE,34,2.0,10.0,33,-99.99,,,0.00,,2013-02-04 18:32:00,
2013-02-04 10:42:00,55.0,26.0,-100.00,NE,34,2.0,10.0,33,-99.99,,,0.00,,2013-02-04 18:42:00,
2013-02-04 10:52:00,55.0,26.0,-100.00,NE,34,2.0,10.0,33,-99.99,,,0.00,,2013-02-04 18:52:00,
2013-02-04 11:01:00,55.0,26.0,-100.00,NE,34,2.0,10.0,33,-99.99,,,0.00,,2013-02-04 19:01:00,
2013-02-04 11:22:00,57.0,26.0,-100.00,WNW,293,2.0,9.0,30,0.00,,,0.00,,2013-02-04 19:22:00,
2013-02-04 11:32:00,57.0,26.0,-100.00,WNW,293,2.0,9.0,30,0.00,,,0.00,,2013-02-04 19:32:00,
2013-02-04 11:42:00,57.0,26.0,-100.00,WNW,293,2.0,9.0,30,0.00,,,0.00,,2013-02-04 19:42:00,
2013-02-04 11:52:00,57.0,26.0,-100.00,WNW,293,2.0,9.0,30,0.00,,,0.00,,2013-02-04 19:52:00,
2013-02-04 12:01:00,57.0,26.0,-100.00,WNW,293,2.0,9.0,30,0.00,,,0.00,,2013-02-04 20:01:00,
2013-02-04 12:22:00,59.0,28.0,-100.00,West,269,2.0,9.0,30,0.00,,,0.00,,2013-02-04 20:22:00,
2013-02-04 12:32:00,59.0,28.0,-100.00,West,269,2.0,9.0,30,0.00,,,0.00,,2013-02-04 20:32:00,
2013-02-04 12:42:00,59.0,28.0,-100.00,West,269,2.0,9.0,30,0.00,,,0.00,,2013-02-04 20:42:00,
2013-02-04 12:52:00,59.0,28.0,-100.00,West,269,2.0,9.0,30,0.00,,,0.00,,2013-02-04 20:52:00,
2013-02-04 13:01:00,59.0,28.0,-100.00,West,269,2.0,9.0,30,0.00,,,0.00,,2013-02-04 21:01:00,
2013-02-04 13:32:00,59.0,28.0,-100.00,ESE,113,2.0,9.0,31,0.00,,,0.00,,2013-02-04 21:32:00,
2013-02-04 13:43:00,59.0,28.0,-100.00,ESE,113,2.0,9.0,31,0.00,,,0.00,,2013-02-04 21:43:00,
2013-02-04 13:52:00,59.0,28.0,-100.00,ESE,113,2.0,9.0,31,0.00,,,0.00,,2013-02-04 21:52:00,
2013-02-04 14:02:00,59.0,28.0,-100.00,ESE,113,2.0,9.0,31,0.00,,,0.00,,2013-02-04 22:02:00,
2013-02-04 14:33:00,60.0,27.0,-100.00,North,354,2.0,9.0,28,0.00,,,0.00,,2013-02-04 22:33:00,
2013-02-04 14:42:00,60.0,27.0,-100.00,North,354,2.0,9.0,28,0.00,,,0.00,,2013-02-04 22:42:00,
2013-02-04 14:52:00,60.0,27.0,-100.00,North,354,2.0,9.0,28,0.00,,,0.00,,2013-02-04 22:52:00,
2013-02-04 15:01:00,60.0,27.0,-100.00,North,354,2.0,9.0,28,0.00,,,0.00,,2013-02-04 23:01:00,
2013-02-04 15:32:00,57.0,25.0,-100.00,NW,321,1.0,7.0,29,-99.99,,,0.00,,2013-02-04 23:32:00,
2013-02-04 15:42:00,57.0,25.0,-100.00,NW,321,1.0,7.0,29,-99.99,,,0.00,,2013-02-04 23:42:00,
2013-02-04 15:52:00,57.0,25.0,-100.00,NW,321,1.0,7.0,29,-99.99,,,0.00,,2013-02-04 23:52:00,
2013-02-04 16:01:00,57.0,25.0,-100.00,NW,321,1.0,7.0,29,-99.99,,,0.00,,2013-02-05 00:01:00,
2013-02-04 16:32:00,57.0,25.0,-100.00,NE,56,1.0,7.0,29,0.00,,,0.00,,2013-02-05 00:32:00,
2013-02-04 16:42:00,57.0,25.0,-100.00,NE,56,1.0,7.0,29,0.00,,,0.00,,2013-02-05 00:42:00,
2013-02-04 16:52:00,57.0,25.0,-100.00,NE,56,1.0,7.0,29,0.00,,,0.00,,2013-02-05 00:52:00,
2013-02-04 17:01:00,57.0,25.0,-100.00,NE,56,1.0,7.0,29,0.00,,,0.00,,2013-02-05 01:01:00,
2013-02-04 17:32:00,48.0,24.0,-100.00,ENE,68,0.0,6.0,39,-99.99,,,0.00,,2013-02-05 01:32:00,
2013-02-04 17:42:00,48.0,24.0,-100.00,ENE,68,0.0,6.0,39,-99.99,,,0.00,,2013-02-05 01:42:00,
2013-02-04 17:52:00,48.0,24.0,-100.00,ENE,68,0.0,6.0,39,-99.99,,,0.00,,2013-02-05 01:52:00,
2013-02-04 18:01:00,48.0,24.0,-100.00,ENE,68,0.0,6.0,39,-99.99,,,0.00,,2013-02-05 02:01:00,
2013-02-04 18:32:00,39.0,25.0,-100.00,NNE,12,0.0,3.0,57,0.00,,,0.00,,2013-02-05 02:32:00,
2013-02-04 18:42:00,39.0,25.0,-100.00,NNE,12,0.0,3.0,57,0.00,,,0.00,,2013-02-05 02:42:00,
2013-02-04 18:52:00,39.0,25.0,-100.00,NNE,12,0.0,3.0,57,0.00,,,0.00,,2013-02-05 02:52:00,
2013-02-04 19:01:00,39.0,25.0,-100.00,NNE,12,0.0,3.0,57,0.00,,,0.00,,2013-02-05 03:01:00,
2013-02-04 19:32:00,34.0,24.0,-100.00,NNE,16,0.0,0.0,66,0.00,,,0.00,,2013-02-05 03:32:00,
2013-02-04 19:42:00,34.0,24.0,-100.00,NNE,16,0.0,0.0,66,0.00,,,0.00,,2013-02-05 03:42:00,
2013-02-04 19:52:00,34.0,24.0,-100.00,NNE,16,0.0,0.0,66,0.00,,,0.00,,2013-02-05 03:52:00,
2013-02-04 20:01:00,34.0,24.0,-100.00,NNE,16,0.0,0.0,66,0.00,,,0.00,,2013-02-05 04:01:00,
2013-02-04 20:32:00,32.0,24.0,-100.00,NNE,19,0.0,0.0,72,0.00,,,0.00,,2013-02-05 04:32:00,
2013-02-04 20:42:00,32.0,24.0,-100.00,NNE,19,0.0,0.0,72,0.00,,,0.00,,2013-02-05 04:42:00,
2013-02-04 20:52:00,32.0,24.0,-100.00,NNE,19,0.0,0.0,72,0.00,,,0.00,,2013-02-05 04:52:00,
2013-02-04 21:01:00,32.0,24.0,-100.00,NNE,19,0.0,0.0,72,0.00,,,0.00,,2013-02-05 05:01:00,
2013-02-04 21:32:00,31.0,24.0,-100.00,NE,42,0.0,0.0,75,0.00,,,0.00,,2013-02-05 05:32:00,
2013-02-04 21:42:00,31.0,24.0,-100.00,NE,42,0.0,0.0,75,0.00,,,0.00,,2013-02-05 05:42:00,
2013-02-04 21:52:00,31.0,24.0,-100.00,NE,42,0.0,0.0,75,0.00,,,0.00,,2013-02-05 05:52:00,
2013-02-04 22:01:00,31.0,24.0,-100.00,NE,42,0.0,0.0,75,0.00,,,0.00,,2013-02-05 06:01:00,
2013-02-04 22:32:00,31.0,25.0,-100.00,NE,42,0.0,0.0,77,0.00,,,0.00,,2013-02-05 06:32:00,
2013-02-04 22:42:00,31.0,25.0,-100.00,NE,42,0.0,0.0,77,0.00,,,0.00,,2013-02-05 06:42:00,
2013-02-04 22:52:00,31.0,25.0,-100.00,NE,42,0.0,0.0,77,0.00,,,0.00,,2013-02-05 06:52:00,
2013-02-04 23:01:00,31.0,25.0,-100.00,NE,42,0.0,0.0,77,0.00,,,0.00,,2013-02-05 07:01:00,
2013-02-04 23:32:00,30.0,24.0,-100.00,NE,51,0.0,0.0,77,0.00,,,0.00,,2013-02-05 07:32:00,
2013-02-04 23:42:00,30.0,24.0,-100.00,NE,51,0.0,0.0,77,0.00,,,0.00,,2013-02-05 07:42:00,
2013-02-04 23:52:00,30.0,24.0,-100.00,NE,51,0.0,0.0,77,0.00,,,0.00,,2013-02-05 07:52:00,